West Lafayette, IN

1:17 PM EDT on May 25, 2017 (GMT -0400)
Lindberg Village | | Change Station
Active Advisory: Flood Warning

Elev 614 ft 40.45 °N, 86.97 °W | Updated 1 minute ago

Overcast
Overcast
63.3 °F
Feels Like 63.3 °F
N
8.2
Wind Variable Wind from WNW
Gusts 13.0 mph

Today
High -- | Low -- °F
--% Chance of Precip.
Yesterday
High -- | Low -- °F
Precip. -- in
Pressure 29.60 in
Visibility 10.0 miles
Clouds Overcast 1500 ft
Dew Point 57 °F
Humidity 79%
Rainfall 0.06 in
Snow Depth Not available.
6:23 AM 9:06 PM
Waning Crescent, 0% visible
SPECI KLAF 251705Z 33012G24KT 10SM OVC015 17/13 A2960 RMK AO2 T01670133
Pressure 29.60 in
Visibility 10.0 miles
Clouds Overcast 1500 ft
Dew Point 57 °F
Humidity 79%
Rainfall 0.06 in
Snow Depth Not available.
6:23 AM 9:06 PM
Waning Crescent, 0% visible
SPECI KLAF 251705Z 33012G24KT 10SM OVC015 17/13 A2960 RMK AO2 T01670133

Get Your Daily Forecast Email!

Thanks for signing up!

Be on the lookout for a verification email in your inbox.

You'll start receiving severe weather alerts in your inbox..

×

10-Day Weather Forecast

Almanac

Astronomy

May. 25, 2017 Rise Set
Actual Time
Civil Twilight
Nautical Twilight
Astronomical Twilight
Moon
Length of Visible Light
Length of Day
Tomorrow will be .
, % of the Moon is Illuminated

Today's Extremes

State Highs State Lows

Community

WunderPhotos

Category 6

Welcome to Category 6. This is the collective home for Weather Underground's featured writeups by Dr. Jeff Masters (right), Bob Henson (left), Chris Burt, and other regular contributors.

Nearby

Air Quality

  Air Quality AQ Index Pollutant
Not available.

Snow Depth

Station Depth Elevation

Earthquake Activity

City Distance Mag. Time & Date
Minimum magnitude displayed is 2.5.

Coastal Water Temperatures

Place Temperature

Stations

Nearby Weather Stations

Station Location Temp. Windchill Dew Point Humidity Wind Precip. Elev Updated Type
                   

Watches & Warnings

Flood Warning
Issued: 10:54 AM EDT May. 24, 2017 – National Weather Service

The Flood Warning continues for
the Wabash River at Lafayette.
* Until late Sunday night.
* At 10:16 am Wednesday the stage was 12.8 feet.
* Flood stage is 11.0 feet.
* Minor flooding is occurring and minor flooding is forecast.
* Forecast... the river will continue to fall to below flood stage by
Sunday early afternoon.
* At 12.0 feet... high water affects a few low river Cabins and County
roads.


Lat... Lon 4054 8670 4040 8688 4033 8709 4040 8709
      4048 8688 4056 8673